FWO584 Weather Reports


Display with metric or nautical units.
time (UTC)temp
F
wind
direction
speed
MPH
gust
MPH
rain 1hr
in
rain 24hr
in
rain mn
in
humidity
%
barometer
mb
20260506173904 61 148 7.0 12.0 0.00 0.01 0.01 79 1010.7
20260506173404 61 145 6.0 16.0 0.00 0.01 0.01 78 1010.6
20260506170403 62 154 13.0 20.0 0.00 0.01 0.01 77 1010.5
20260506163905 63 160 9.0 16.0 0.00 0.01 0.01 75 1010.4
20260506163404 63 161 10.0 21.0 0.00 0.01 0.01 75 1010.3
20260506160904 63 129 10.0 15.0 0.00 0.01 0.01 75 1010.1
20260506160405 63 133 10.0 21.0 0.00 0.01 0.01 75 1010.1
20260506153905 64 149 14.0 22.0 0.00 0.01 0.01 71 1010.2
20260506150905 63 138 10.0 18.0 0.00 0.01 0.01 70 1010.1
20260506150405 64 144 13.0 21.0 0.00 0.01 0.01 71 1010.0
20260506143905 64 131 11.0 22.0 0.00 0.01 0.01 70 1010.2
20260506143405 64 157 13.0 23.0 0.00 0.01 0.01 69 1010.3
20260506140904 63 140 12.0 23.0 0.00 0.01 0.01 71 1010.3
20260506140404 64 138 14.0 21.0 0.00 0.01 0.01 70 1010.5
20260506133904 65 145 12.0 18.0 0.00 0.01 0.01 67 1010.7
20260506133404 65 169 10.0 20.0 0.00 0.01 0.01 68 1010.8
20260506130403 63 149 13.0 21.0 0.00 0.01 0.01 70 1011.1
20260506123905 64 164 13.0 21.0 0.00 0.01 0.01 68 1011.2
20260506123405 64 164 14.0 24.0 0.00 0.01 0.01 68 1011.2
20260506120405 64 111 11.0 21.0 0.00 0.01 0.01 68 1011.1
20260506113906 63 123 11.0 18.0 0.00 0.01 0.01 71 1011.1
20260506113404 63 132 14.0 23.0 0.00 0.01 0.01 70 1011.1
20260506110904 62 138 13.0 20.0 0.00 0.01 0.01 74 1011.4
20260506110404 62 118 10.0 18.0 0.00 0.01 0.01 75 1011.4
20260506103905 62 124 13.0 21.0 0.00 0.01 0.01 73 1011.6
20260506103405 63 114 12.0 18.0 0.00 0.01 0.01 73 1011.7
20260506100905 62 149 13.0 20.0 0.00 0.01 0.01 73 1011.8
20260506100404 63 151 9.0 21.0 0.00 0.01 0.01 72 1011.8
20260506093904 64 167 11.0 15.0 0.00 0.01 0.01 68 1011.8
20260506093403 64 155 12.0 17.0 0.00 0.01 0.01 68 1011.7
20260506090905 64 130 10.0 18.0 0.00 0.01 0.01 68 1011.4
20260506090405 64 152 11.0 17.0 0.00 0.01 0.01 68 1011.4
20260506083905 64 162 5.0 8.0 0.00 0.01 0.01 70 1011.3
20260506083407 63 166 9.0 16.0 0.00 0.01 0.01 70 1011.3
20260506080905 60 223 2.0 7.0 0.00 0.01 0.01 80 1011.3
20260506073405 57 255 1.0 3.0 0.00 0.01 0.01 86 1011.1
20260506070904 55 307 1.0 3.0 0.00 0.01 0.01 87 1011.1
20260506070405 54 311 2.0 3.0 0.00 0.01 0.01 87 1011.0
20260506060905 47 143 0.0 0.0 0.00 0.02 0.01 87 1011.0
20260506050904 45 0 0.0 1.0 0.00 0.02 0.01 87 1010.5
20260506050404 45 0 2.0 3.0 0.00 0.02 0.01 87 1010.4
20260506043905 45 0 0.0 2.0 0.00 0.02 0.01 87 1010.1
20260506043405 45 0 1.0 3.0 0.00 0.02 0.01 87 1010.2
20260506040904 46 0 0.0 0.0 0.00 0.02 0.01 87 1010.1
20260506040404 46 0 0.0 0.0 0.00 0.02 0.01 87 1010.1
20260506033905 46 0 0.0 0.0 0.00 0.02 0.01 87 1010.1
20260506030905 46 0 0.0 0.0 0.00 0.02 0.01 87 1010.1
20260506030405 47 0 0.0 0.0 0.00 0.02 0.01 86 1010.1
20260506023904 47 0 0.0 0.0 0.00 0.02 0.01 86 1010.0
20260506020905 48 0 0.0 1.0 0.00 0.02 0.01 86 1009.9
20260506020405 48 0 2.0 3.0 0.00 0.02 0.01 86 1009.9
20260506013904 49 0 0.0 0.0 0.00 0.02 0.01 86 1009.7
20260506013404 49 0 0.0 2.0 0.00 0.02 0.01 86 1009.8
20260506010904 50 0 0.0 2.0 0.01 0.02 0.01 86 1009.7
20260506010404 50 0 1.0 3.0 0.01 0.02 0.01 86 1009.8
20260506003905 51 0 0.0 2.0 0.01 0.02 0.01 85 1010.0
20260506003404 51 0 0.0 3.0 0.01 0.02 0.01 85 1010.1
20260506000904 52 202 0.0 3.0 0.00 0.01 0.00 85 1010.0
20260506000404 52 315 2.0 5.0 0.00 0.01 0.00 85 1010.1
20260505233904 53 127 0.0 3.0 0.00 0.01 0.00 85 1009.9
20260505233404 53 120 3.0 3.0 0.00 0.01 0.00 85 1009.9
20260505230904 53 171 2.0 5.0 0.00 0.01 0.00 84 1010.6
20260505230404 53 154 0.0 0.0 0.00 0.01 0.00 84 1010.6
20260505223904 54 241 0.0 0.0 0.00 0.01 0.00 83 1010.8
20260505223404 54 241 0.0 0.0 0.00 0.01 0.00 83 1010.8
20260505220904 54 176 0.0 0.0 0.00 0.01 0.00 83 1010.7
20260505220404 54 166 1.0 3.0 0.00 0.01 0.00 82 1010.9
20260505213404 55 172 1.0 3.0 0.00 0.01 0.01 81 1010.9
20260505210904 56 354 3.0 5.0 0.00 0.01 0.01 81 1011.0
20260505210404 56 314 5.0 14.0 0.00 0.01 0.01 82 1010.9
20260505203404 56 95 3.0 3.0 0.00 0.01 0.01 81 1010.0
20260505200904 58 157 2.0 3.0 0.00 0.01 0.01 77 1009.5
20260505200404 58 242 0.0 0.0 0.00 0.01 0.01 77 1009.5
20260505193904 59 336 0.0 2.0 0.00 0.01 0.01 77 1009.2
20260505193404 59 291 0.0 12.0 0.00 0.01 0.01 77 1009.2
20260505190903 61 310 3.0 10.0 0.00 0.01 0.01 79 1009.1
20260505190403 61 257 0.0 6.0 0.00 0.01 0.01 79 1008.8
20260505183904 62 146 3.0 5.0 0.00 0.01 0.01 79 1008.6
20260505180904 63 191 3.0 6.0 0.00 0.01 0.01 80 1009.0
20260505180404 63 163 3.0 8.0 0.00 0.02 0.01 80 1009.0